Location: Lugrin
(46.4033°N, 6.6674°E)
Time: 15:15:19
(UTC+00:00)

N. Korean satellite - Pass Details

Date: 25 November 2020
Orbit: 453 x 502 km, 97.2° (Epoch: 15 January)

Event Time Altitude Azimuth Distance (km) Brightness Sun altitude
Rises 17:25:33 0° 217° (SW) 2,455 11.0 -15.8°
Reaches altitude 10° 17:29:18 10° 261° (W) 1,594 10.5 -16.5°
Maximum altitude 17:29:54 10° 271° (W) 1,574 10.4 -16.6°
Drops below altitude 10° 17:30:30 10° 281° (W) 1,598 10.2 -16.7°
Sets 17:34:18 0° 325° (NW) 2,489 10.5 -17.3°
